Location: *
(46.3500°N, 10.9000°E)
Time: 14:04:30
(UTC+00:00)

Explorer 11/Cluster Stage 4 - Pass Details

Date: 18 April 2021
Orbit: 467 x 1257 km, 28.8° (Epoch: 05 May)

Event Time Altitude Azimuth Distance (km) Brightness Sun altitude
Rises 10:35:49 0° 239° (WSW) 3,262 9.9 53.6°
Reaches altitude 10° 10:40:23 10° 205° (SSW) 2,556 9.8 53.8°
Maximum altitude 10:41:59 11° 190° (S) 2,556 9.9 53.9°
Drops below altitude 10° 10:43:39 10° 175° (S) 2,706 10.1 54.0°
Sets 10:49:04 0° 143° (SE) 3,877 10.6 54.2°
